Location: JKWMA (FRAC)
(33.1803°N, 84.5512°W)
Time: 10:16:37
(UTC-04:00)

Hubble Space Telescope - Pass Details

Date: 22 March 2019
Orbit: 537 x 540 km, 28.5° (Epoch: 24 April)

Event Time Altitude Azimuth Distance (km) Brightness Sun altitude
Rises 21:18:09 0° 220° (SW) 2,667 4.7 -18.8°
Reaches altitude 10° 21:21:03 10° 199° (SSW) 1,779 3.5 -19.4°
Enters shadow 21:22:36 15° 178° (S) 1,479 2.8 -19.7°
